Index of /20260508/WXO-DD/model_caps/3km/12/030
Name Last modified Size Description
Parent Directory -
20260508T12Z_MSC_CAPS_AbsoluteVorticity_IsbL-0250_RLatLon0.03_PT030H.grib2 2026-05-08 18:15 1.1M
20260508T12Z_MSC_CAPS_AbsoluteVorticity_IsbL-0500_RLatLon0.03_PT030H.grib2 2026-05-08 18:15 1.1M
20260508T12Z_MSC_CAPS_AbsoluteVorticity_IsbL-0700_RLatLon0.03_PT030H.grib2 2026-05-08 18:15 1.0M
20260508T12Z_MSC_CAPS_AbsoluteVorticity_IsbL-0850_RLatLon0.03_PT030H.grib2 2026-05-08 18:15 1.3M
20260508T12Z_MSC_CAPS_AbsoluteVorticity_IsbL-1000_RLatLon0.03_PT030H.grib2 2026-05-08 18:15 1.4M
20260508T12Z_MSC_CAPS_AirDensity_AGL-120m_RLatLon0.03_PT030H.grib2 2026-05-08 18:15 1.4M
20260508T12Z_MSC_CAPS_AirDensity_AGL-40m_RLatLon0.03_PT030H.grib2 2026-05-08 18:15 1.5M
20260508T12Z_MSC_CAPS_AirDensity_AGL-80m_RLatLon0.03_PT030H.grib2 2026-05-08 18:15 1.4M
20260508T12Z_MSC_CAPS_AirTemp_AGL-120m_RLatLon0.03_PT030H.grib2 2026-05-08 18:15 1.8M
20260508T12Z_MSC_CAPS_AirTemp_AGL-2m_RLatLon0.03_PT030H.grib2 2026-05-08 18:15 2.1M
20260508T12Z_MSC_CAPS_AirTemp_AGL-40m_RLatLon0.03_PT030H.grib2 2026-05-08 18:15 1.8M
20260508T12Z_MSC_CAPS_AirTemp_AGL-80m_RLatLon0.03_PT030H.grib2 2026-05-08 18:15 1.8M
20260508T12Z_MSC_CAPS_AirTemp_IsbL-0050_RLatLon0.03_PT030H.grib2 2026-05-08 18:15 687K
20260508T12Z_MSC_CAPS_AirTemp_IsbL-0100_RLatLon0.03_PT030H.grib2 2026-05-08 18:15 787K
20260508T12Z_MSC_CAPS_AirTemp_IsbL-0150_RLatLon0.03_PT030H.grib2 2026-05-08 18:15 748K
20260508T12Z_MSC_CAPS_AirTemp_IsbL-0175_RLatLon0.03_PT030H.grib2 2026-05-08 18:15 775K
20260508T12Z_MSC_CAPS_AirTemp_IsbL-0200_RLatLon0.03_PT030H.grib2 2026-05-08 18:15 796K
20260508T12Z_MSC_CAPS_AirTemp_IsbL-0225_RLatLon0.03_PT030H.grib2 2026-05-08 18:15 799K
20260508T12Z_MSC_CAPS_AirTemp_IsbL-0250_RLatLon0.03_PT030H.grib2 2026-05-08 18:15 788K
20260508T12Z_MSC_CAPS_AirTemp_IsbL-0275_RLatLon0.03_PT030H.grib2 2026-05-08 18:15 783K
20260508T12Z_MSC_CAPS_AirTemp_IsbL-0300_RLatLon0.03_PT030H.grib2 2026-05-08 18:15 1.0M
20260508T12Z_MSC_CAPS_AirTemp_IsbL-0350_RLatLon0.03_PT030H.grib2 2026-05-08 18:15 749K
20260508T12Z_MSC_CAPS_AirTemp_IsbL-0400_RLatLon0.03_PT030H.grib2 2026-05-08 18:15 754K
20260508T12Z_MSC_CAPS_AirTemp_IsbL-0450_RLatLon0.03_PT030H.grib2 2026-05-08 18:15 771K
20260508T12Z_MSC_CAPS_AirTemp_IsbL-0500_RLatLon0.03_PT030H.grib2 2026-05-08 18:15 788K
20260508T12Z_MSC_CAPS_AirTemp_IsbL-0550_RLatLon0.03_PT030H.grib2 2026-05-08 18:15 803K
20260508T12Z_MSC_CAPS_AirTemp_IsbL-0600_RLatLon0.03_PT030H.grib2 2026-05-08 18:15 823K
20260508T12Z_MSC_CAPS_AirTemp_IsbL-0650_RLatLon0.03_PT030H.grib2 2026-05-08 18:15 850K
20260508T12Z_MSC_CAPS_AirTemp_IsbL-0700_RLatLon0.03_PT030H.grib2 2026-05-08 18:15 881K
20260508T12Z_MSC_CAPS_AirTemp_IsbL-0750_RLatLon0.03_PT030H.grib2 2026-05-08 18:15 919K
20260508T12Z_MSC_CAPS_AirTemp_IsbL-0800_RLatLon0.03_PT030H.grib2 2026-05-08 18:15 950K
20260508T12Z_MSC_CAPS_AirTemp_IsbL-0850_RLatLon0.03_PT030H.grib2 2026-05-08 18:15 1.0M
20260508T12Z_MSC_CAPS_AirTemp_IsbL-0875_RLatLon0.03_PT030H.grib2 2026-05-08 18:15 1.0M
20260508T12Z_MSC_CAPS_AirTemp_IsbL-0900_RLatLon0.03_PT030H.grib2 2026-05-08 18:15 1.1M
20260508T12Z_MSC_CAPS_AirTemp_IsbL-0925_RLatLon0.03_PT030H.grib2 2026-05-08 18:15 1.1M
20260508T12Z_MSC_CAPS_AirTemp_IsbL-0950_RLatLon0.03_PT030H.grib2 2026-05-08 18:15 1.1M
20260508T12Z_MSC_CAPS_AirTemp_IsbL-0970_RLatLon0.03_PT030H.grib2 2026-05-08 18:15 1.1M
20260508T12Z_MSC_CAPS_AirTemp_IsbL-0985_RLatLon0.03_PT030H.grib2 2026-05-08 18:15 1.1M
20260508T12Z_MSC_CAPS_AirTemp_IsbL-1000_RLatLon0.03_PT030H.grib2 2026-05-08 18:15 1.1M
20260508T12Z_MSC_CAPS_AirTemp_IsbL-1015_RLatLon0.03_PT030H.grib2 2026-05-08 18:15 1.0M
20260508T12Z_MSC_CAPS_Albedo_Sfc_RLatLon0.03_PT030H.grib2 2026-05-08 18:15 2.7M
20260508T12Z_MSC_CAPS_CAPE_Sfc_RLatLon0.03_PT030H.grib2 2026-05-08 18:15 295K
20260508T12Z_MSC_CAPS_CloudWater_EAtm_RLatLon0.03_PT030H.grib2 2026-05-08 18:15 1.6M
20260508T12Z_MSC_CAPS_ConvectivePrecip-Accum_Sfc_RLatLon0.03_PT030H.grib2 2026-05-08 18:15 4.4M
20260508T12Z_MSC_CAPS_DewPointDepression_AGL-120m_RLatLon0.03_PT030H.grib2 2026-05-08 18:15 2.1M
20260508T12Z_MSC_CAPS_DewPointDepression_AGL-2m_RLatLon0.03_PT030H.grib2 2026-05-08 18:15 2.2M
20260508T12Z_MSC_CAPS_DewPointDepression_AGL-40m_RLatLon0.03_PT030H.grib2 2026-05-08 18:15 2.1M
20260508T12Z_MSC_CAPS_DewPointDepression_AGL-80m_RLatLon0.03_PT030H.grib2 2026-05-08 18:15 2.1M
20260508T12Z_MSC_CAPS_DewPointDepression_IsbL-0050_RLatLon0.03_PT030H.grib2 2026-05-08 18:15 193
20260508T12Z_MSC_CAPS_DewPointDepression_IsbL-0100_RLatLon0.03_PT030H.grib2 2026-05-08 18:15 71K
20260508T12Z_MSC_CAPS_DewPointDepression_IsbL-0150_RLatLon0.03_PT030H.grib2 2026-05-08 18:15 74K
20260508T12Z_MSC_CAPS_DewPointDepression_IsbL-0175_RLatLon0.03_PT030H.grib2 2026-05-08 18:15 180K
20260508T12Z_MSC_CAPS_DewPointDepression_IsbL-0200_RLatLon0.03_PT030H.grib2 2026-05-08 18:15 384K
20260508T12Z_MSC_CAPS_DewPointDepression_IsbL-0225_RLatLon0.03_PT030H.grib2 2026-05-08 18:15 624K
20260508T12Z_MSC_CAPS_DewPointDepression_IsbL-0250_RLatLon0.03_PT030H.grib2 2026-05-08 18:15 875K
20260508T12Z_MSC_CAPS_DewPointDepression_IsbL-0275_RLatLon0.03_PT030H.grib2 2026-05-08 18:15 1.0M
20260508T12Z_MSC_CAPS_DewPointDepression_IsbL-0300_RLatLon0.03_PT030H.grib2 2026-05-08 18:15 1.0M
20260508T12Z_MSC_CAPS_DewPointDepression_IsbL-0350_RLatLon0.03_PT030H.grib2 2026-05-08 18:15 1.1M
20260508T12Z_MSC_CAPS_DewPointDepression_IsbL-0400_RLatLon0.03_PT030H.grib2 2026-05-08 18:15 1.1M
20260508T12Z_MSC_CAPS_DewPointDepression_IsbL-0450_RLatLon0.03_PT030H.grib2 2026-05-08 18:15 1.2M
20260508T12Z_MSC_CAPS_DewPointDepression_IsbL-0500_RLatLon0.03_PT030H.grib2 2026-05-08 18:15 1.2M
20260508T12Z_MSC_CAPS_DewPointDepression_IsbL-0550_RLatLon0.03_PT030H.grib2 2026-05-08 18:15 1.2M
20260508T12Z_MSC_CAPS_DewPointDepression_IsbL-0600_RLatLon0.03_PT030H.grib2 2026-05-08 18:15 1.2M
20260508T12Z_MSC_CAPS_DewPointDepression_IsbL-0650_RLatLon0.03_PT030H.grib2 2026-05-08 18:15 1.3M
20260508T12Z_MSC_CAPS_DewPointDepression_IsbL-0700_RLatLon0.03_PT030H.grib2 2026-05-08 18:15 1.3M
20260508T12Z_MSC_CAPS_DewPointDepression_IsbL-0750_RLatLon0.03_PT030H.grib2 2026-05-08 18:15 1.3M
20260508T12Z_MSC_CAPS_DewPointDepression_IsbL-0800_RLatLon0.03_PT030H.grib2 2026-05-08 18:15 1.3M
20260508T12Z_MSC_CAPS_DewPointDepression_IsbL-0850_RLatLon0.03_PT030H.grib2 2026-05-08 18:15 1.3M
20260508T12Z_MSC_CAPS_DewPointDepression_IsbL-0875_RLatLon0.03_PT030H.grib2 2026-05-08 18:15 1.3M
20260508T12Z_MSC_CAPS_DewPointDepression_IsbL-0900_RLatLon0.03_PT030H.grib2 2026-05-08 18:15 1.3M
20260508T12Z_MSC_CAPS_DewPointDepression_IsbL-0925_RLatLon0.03_PT030H.grib2 2026-05-08 18:15 1.3M
20260508T12Z_MSC_CAPS_DewPointDepression_IsbL-0950_RLatLon0.03_PT030H.grib2 2026-05-08 18:15 1.3M
20260508T12Z_MSC_CAPS_DewPointDepression_IsbL-0970_RLatLon0.03_PT030H.grib2 2026-05-08 18:15 1.3M
20260508T12Z_MSC_CAPS_DewPointDepression_IsbL-0985_RLatLon0.03_PT030H.grib2 2026-05-08 18:15 1.3M
20260508T12Z_MSC_CAPS_DewPointDepression_IsbL-1000_RLatLon0.03_PT030H.grib2 2026-05-08 18:15 1.3M
20260508T12Z_MSC_CAPS_DewPointDepression_IsbL-1015_RLatLon0.03_PT030H.grib2 2026-05-08 18:15 1.3M
20260508T12Z_MSC_CAPS_DewPoint_AGL-120m_RLatLon0.03_PT030H.grib2 2026-05-08 18:15 3.6M
20260508T12Z_MSC_CAPS_DewPoint_AGL-2m_RLatLon0.03_PT030H.grib2 2026-05-08 18:15 2.2M
20260508T12Z_MSC_CAPS_DewPoint_AGL-40m_RLatLon0.03_PT030H.grib2 2026-05-08 18:15 3.7M
20260508T12Z_MSC_CAPS_DewPoint_AGL-80m_RLatLon0.03_PT030H.grib2 2026-05-08 18:15 3.7M
20260508T12Z_MSC_CAPS_DownwardLongwaveRadiationFlux-Accum_Sfc_RLatLon0.03_PT030H.grib2 2026-05-08 18:15 2.4M
20260508T12Z_MSC_CAPS_DownwardShortwaveRadiationFlux-Accum_NTAtm_RLatLon0.03_PT030H.grib2 2026-05-08 18:15 470K
20260508T12Z_MSC_CAPS_DownwardShortwaveRadiationFlux-Accum_Sfc_RLatLon0.03_PT030H.grib2 2026-05-08 18:15 2.8M
20260508T12Z_MSC_CAPS_FreezingRain-Accum_Sfc_RLatLon0.03_PT030H.grib2 2026-05-08 18:15 800K
20260508T12Z_MSC_CAPS_GeopotentialHeight_IsbL-0050_RLatLon0.03_PT030H.grib2 2026-05-08 18:15 623K
20260508T12Z_MSC_CAPS_GeopotentialHeight_IsbL-0100_RLatLon0.03_PT030H.grib2 2026-05-08 18:15 810K
20260508T12Z_MSC_CAPS_GeopotentialHeight_IsbL-0150_RLatLon0.03_PT030H.grib2 2026-05-08 18:15 601K
20260508T12Z_MSC_CAPS_GeopotentialHeight_IsbL-0175_RLatLon0.03_PT030H.grib2 2026-05-08 18:15 718K
20260508T12Z_MSC_CAPS_GeopotentialHeight_IsbL-0200_RLatLon0.03_PT030H.grib2 2026-05-08 18:15 737K
20260508T12Z_MSC_CAPS_GeopotentialHeight_IsbL-0225_RLatLon0.03_PT030H.grib2 2026-05-08 18:15 756K
20260508T12Z_MSC_CAPS_GeopotentialHeight_IsbL-0250_RLatLon0.03_PT030H.grib2 2026-05-08 18:15 770K
20260508T12Z_MSC_CAPS_GeopotentialHeight_IsbL-0275_RLatLon0.03_PT030H.grib2 2026-05-08 18:15 778K
20260508T12Z_MSC_CAPS_GeopotentialHeight_IsbL-0300_RLatLon0.03_PT030H.grib2 2026-05-08 18:15 785K
20260508T12Z_MSC_CAPS_GeopotentialHeight_IsbL-0350_RLatLon0.03_PT030H.grib2 2026-05-08 18:15 785K
20260508T12Z_MSC_CAPS_GeopotentialHeight_IsbL-0400_RLatLon0.03_PT030H.grib2 2026-05-08 18:15 782K
20260508T12Z_MSC_CAPS_GeopotentialHeight_IsbL-0450_RLatLon0.03_PT030H.grib2 2026-05-08 18:15 773K
20260508T12Z_MSC_CAPS_GeopotentialHeight_IsbL-0500_RLatLon0.03_PT030H.grib2 2026-05-08 18:15 768K
20260508T12Z_MSC_CAPS_GeopotentialHeight_IsbL-0550_RLatLon0.03_PT030H.grib2 2026-05-08 18:15 761K
20260508T12Z_MSC_CAPS_GeopotentialHeight_IsbL-0600_RLatLon0.03_PT030H.grib2 2026-05-08 18:15 749K
20260508T12Z_MSC_CAPS_GeopotentialHeight_IsbL-0650_RLatLon0.03_PT030H.grib2 2026-05-08 18:15 643K
20260508T12Z_MSC_CAPS_GeopotentialHeight_IsbL-0700_RLatLon0.03_PT030H.grib2 2026-05-08 18:15 643K
20260508T12Z_MSC_CAPS_GeopotentialHeight_IsbL-0750_RLatLon0.03_PT030H.grib2 2026-05-08 18:15 640K
20260508T12Z_MSC_CAPS_GeopotentialHeight_IsbL-0800_RLatLon0.03_PT030H.grib2 2026-05-08 18:15 824K
20260508T12Z_MSC_CAPS_GeopotentialHeight_IsbL-0850_RLatLon0.03_PT030H.grib2 2026-05-08 18:15 833K
20260508T12Z_MSC_CAPS_GeopotentialHeight_IsbL-0875_RLatLon0.03_PT030H.grib2 2026-05-08 18:15 839K
20260508T12Z_MSC_CAPS_GeopotentialHeight_IsbL-0900_RLatLon0.03_PT030H.grib2 2026-05-08 18:15 846K
20260508T12Z_MSC_CAPS_GeopotentialHeight_IsbL-0925_RLatLon0.03_PT030H.grib2 2026-05-08 18:15 855K
20260508T12Z_MSC_CAPS_GeopotentialHeight_IsbL-0950_RLatLon0.03_PT030H.grib2 2026-05-08 18:15 863K
20260508T12Z_MSC_CAPS_GeopotentialHeight_IsbL-0970_RLatLon0.03_PT030H.grib2 2026-05-08 18:15 870K
20260508T12Z_MSC_CAPS_GeopotentialHeight_IsbL-0985_RLatLon0.03_PT030H.grib2 2026-05-08 18:15 876K
20260508T12Z_MSC_CAPS_GeopotentialHeight_IsbL-1000_RLatLon0.03_PT030H.grib2 2026-05-08 18:15 884K
20260508T12Z_MSC_CAPS_GeopotentialHeight_IsbL-1015_RLatLon0.03_PT030H.grib2 2026-05-08 18:15 896K
20260508T12Z_MSC_CAPS_GeopotentialHeight_Sfc_RLatLon0.03_PT030H.grib2 2026-05-08 18:15 1.0M
20260508T12Z_MSC_CAPS_IcePellets-Accum_Sfc_RLatLon0.03_PT030H.grib2 2026-05-08 18:15 32K
20260508T12Z_MSC_CAPS_LatentHeatNetFlux_Sfc_RLatLon0.03_PT030H.grib2 2026-05-08 18:15 2.0M
20260508T12Z_MSC_CAPS_LiftedIndex-MU-VT_IsbL-0500_RLatLon0.03_PT030H.grib2 2026-05-08 18:15 3.4M
20260508T12Z_MSC_CAPS_MixedLayerThickness_Sfc_RLatLon0.03_PT030H.nc 2026-05-08 18:12 16M
20260508T12Z_MSC_CAPS_NetLongwaveRadiationFlux-Accum_Sfc_RLatLon0.03_PT030H.grib2 2026-05-08 18:15 2.7M
20260508T12Z_MSC_CAPS_NetShortwaveRadiationFlux-Accum_Sfc_RLatLon0.03_PT030H.grib2 2026-05-08 18:15 2.7M
20260508T12Z_MSC_CAPS_PlanetaryBoundaryLayerHeight_Sfc_RLatLon0.03_PT030H.grib2 2026-05-08 18:15 3.1M
20260508T12Z_MSC_CAPS_Precip-Accum_Sfc_RLatLon0.03_PT030H.grib2 2026-05-08 18:15 5.2M
20260508T12Z_MSC_CAPS_PrecipRate_Sfc_RLatLon0.03_PT030H.grib2 2026-05-08 18:15 485K
20260508T12Z_MSC_CAPS_PrecipType-Instant_Sfc_RLatLon0.03_PT030H.grib2 2026-05-08 18:15 2.0M
20260508T12Z_MSC_CAPS_Pressure_MSL_RLatLon0.03_PT030H.grib2 2026-05-08 18:15 767K
20260508T12Z_MSC_CAPS_Pressure_Sfc_RLatLon0.03_PT030H.grib2 2026-05-08 18:15 1.3M
20260508T12Z_MSC_CAPS_RadiativeTemp_Sfc_RLatLon0.03_PT030H.grib2 2026-05-08 18:15 2.0M
20260508T12Z_MSC_CAPS_Rain-Accum_Sfc_RLatLon0.03_PT030H.grib2 2026-05-08 18:15 2.7M
20260508T12Z_MSC_CAPS_RelativeHumidity_AGL-120m_RLatLon0.03_PT030H.grib2 2026-05-08 18:15 2.8M
20260508T12Z_MSC_CAPS_RelativeHumidity_AGL-2m_RLatLon0.03_PT030H.grib2 2026-05-08 18:15 2.9M
20260508T12Z_MSC_CAPS_RelativeHumidity_AGL-40m_RLatLon0.03_PT030H.grib2 2026-05-08 18:15 2.8M
20260508T12Z_MSC_CAPS_RelativeHumidity_AGL-80m_RLatLon0.03_PT030H.grib2 2026-05-08 18:15 2.8M
20260508T12Z_MSC_CAPS_RelativeHumidity_IsbL-0050_RLatLon0.03_PT030H.grib2 2026-05-08 18:15 956K
20260508T12Z_MSC_CAPS_RelativeHumidity_IsbL-0100_RLatLon0.03_PT030H.grib2 2026-05-08 18:15 1.1M
20260508T12Z_MSC_CAPS_RelativeHumidity_IsbL-0150_RLatLon0.03_PT030H.grib2 2026-05-08 18:15 530K
20260508T12Z_MSC_CAPS_RelativeHumidity_IsbL-0175_RLatLon0.03_PT030H.grib2 2026-05-08 18:15 465K
20260508T12Z_MSC_CAPS_RelativeHumidity_IsbL-0200_RLatLon0.03_PT030H.grib2 2026-05-08 18:15 652K
20260508T12Z_MSC_CAPS_RelativeHumidity_IsbL-0225_RLatLon0.03_PT030H.grib2 2026-05-08 18:15 902K
20260508T12Z_MSC_CAPS_RelativeHumidity_IsbL-0250_RLatLon0.03_PT030H.grib2 2026-05-08 18:15 1.1M
20260508T12Z_MSC_CAPS_RelativeHumidity_IsbL-0275_RLatLon0.03_PT030H.grib2 2026-05-08 18:15 1.4M
20260508T12Z_MSC_CAPS_RelativeHumidity_IsbL-0300_RLatLon0.03_PT030H.grib2 2026-05-08 18:15 1.7M
20260508T12Z_MSC_CAPS_RelativeHumidity_IsbL-0350_RLatLon0.03_PT030H.grib2 2026-05-08 18:15 1.9M
20260508T12Z_MSC_CAPS_RelativeHumidity_IsbL-0400_RLatLon0.03_PT030H.grib2 2026-05-08 18:15 2.1M
20260508T12Z_MSC_CAPS_RelativeHumidity_IsbL-0450_RLatLon0.03_PT030H.grib2 2026-05-08 18:15 2.0M
20260508T12Z_MSC_CAPS_RelativeHumidity_IsbL-0500_RLatLon0.03_PT030H.grib2 2026-05-08 18:15 2.1M
20260508T12Z_MSC_CAPS_RelativeHumidity_IsbL-0550_RLatLon0.03_PT030H.grib2 2026-05-08 18:15 2.1M
20260508T12Z_MSC_CAPS_RelativeHumidity_IsbL-0600_RLatLon0.03_PT030H.grib2 2026-05-08 18:15 2.2M
20260508T12Z_MSC_CAPS_RelativeHumidity_IsbL-0650_RLatLon0.03_PT030H.grib2 2026-05-08 18:15 2.2M
20260508T12Z_MSC_CAPS_RelativeHumidity_IsbL-0700_RLatLon0.03_PT030H.grib2 2026-05-08 18:15 2.3M
20260508T12Z_MSC_CAPS_RelativeHumidity_IsbL-0750_RLatLon0.03_PT030H.grib2 2026-05-08 18:15 2.3M
20260508T12Z_MSC_CAPS_RelativeHumidity_IsbL-0800_RLatLon0.03_PT030H.grib2 2026-05-08 18:15 2.4M
20260508T12Z_MSC_CAPS_RelativeHumidity_IsbL-0850_RLatLon0.03_PT030H.grib2 2026-05-08 18:15 2.5M
20260508T12Z_MSC_CAPS_RelativeHumidity_IsbL-0875_RLatLon0.03_PT030H.grib2 2026-05-08 18:15 2.6M
20260508T12Z_MSC_CAPS_RelativeHumidity_IsbL-0900_RLatLon0.03_PT030H.grib2 2026-05-08 18:15 2.6M
20260508T12Z_MSC_CAPS_RelativeHumidity_IsbL-0925_RLatLon0.03_PT030H.grib2 2026-05-08 18:15 2.6M
20260508T12Z_MSC_CAPS_RelativeHumidity_IsbL-0950_RLatLon0.03_PT030H.grib2 2026-05-08 18:15 2.7M
20260508T12Z_MSC_CAPS_RelativeHumidity_IsbL-0970_RLatLon0.03_PT030H.grib2 2026-05-08 18:15 2.7M
20260508T12Z_MSC_CAPS_RelativeHumidity_IsbL-0985_RLatLon0.03_PT030H.grib2 2026-05-08 18:15 2.8M
20260508T12Z_MSC_CAPS_RelativeHumidity_IsbL-1000_RLatLon0.03_PT030H.grib2 2026-05-08 18:15 2.8M
20260508T12Z_MSC_CAPS_RelativeHumidity_IsbL-1015_RLatLon0.03_PT030H.grib2 2026-05-08 18:15 2.9M
20260508T12Z_MSC_CAPS_Runoff-Accum_Sfc_RLatLon0.03_PT030H.grib2 2026-05-08 18:15 313K
20260508T12Z_MSC_CAPS_SeaIceAreaFraction_Sfc_RLatLon0.03_PT030H.nc 2026-05-08 18:12 15M
20260508T12Z_MSC_CAPS_SeaIceCompressiveStrength_Sfc_RLatLon0.03_PT030H.nc 2026-05-08 18:12 15M
20260508T12Z_MSC_CAPS_SeaIceDivergence_Sfc_RLatLon0.03_PT030H.nc 2026-05-08 18:12 15M
20260508T12Z_MSC_CAPS_SeaIceInternalPressure_Sfc_RLatLon0.03_PT030H.nc 2026-05-08 18:12 15M
20260508T12Z_MSC_CAPS_SeaIceShear_Sfc_RLatLon0.03_PT030H.nc 2026-05-08 18:12 15M
20260508T12Z_MSC_CAPS_SeaIceSnowTemp_Sfc_RLatLon0.03_PT030H.nc 2026-05-08 18:12 14M
20260508T12Z_MSC_CAPS_SeaIceSnowVolume_Sfc_RLatLon0.03_PT030H.nc 2026-05-08 18:12 15M
20260508T12Z_MSC_CAPS_SeaIceVelocityX_Sfc_RLatLon0.03_PT030H.nc 2026-05-08 18:12 15M
20260508T12Z_MSC_CAPS_SeaIceVelocityY_Sfc_RLatLon0.03_PT030H.nc 2026-05-08 18:12 15M
20260508T12Z_MSC_CAPS_SeaIceVolume_Sfc_RLatLon0.03_PT030H.nc 2026-05-08 18:12 15M
20260508T12Z_MSC_CAPS_SeaSurfaceHeight_Sfc_RLatLon0.03_PT030H.nc 2026-05-08 18:12 16M
20260508T12Z_MSC_CAPS_SeaWaterSalinity_DBS-0.5m_RLatLon0.03_PT030H.nc 2026-05-08 18:12 16M
20260508T12Z_MSC_CAPS_SeaWaterSalinity_DBS-all_RLatLon0.03_PT030H.nc 2026-05-08 18:12 107M
20260508T12Z_MSC_CAPS_SeaWaterTemp_DBS-0.5m_RLatLon0.03_PT030H.nc 2026-05-08 18:12 15M
20260508T12Z_MSC_CAPS_SeaWaterTemp_DBS-all_RLatLon0.03_PT030H.nc 2026-05-08 18:12 88M
20260508T12Z_MSC_CAPS_SeaWaterVelocityX_DBS-0.5m_RLatLon0.03_PT030H.nc 2026-05-08 18:12 17M
20260508T12Z_MSC_CAPS_SeaWaterVelocityX_DBS-all_RLatLon0.03_PT030H.nc 2026-05-08 18:12 212M
20260508T12Z_MSC_CAPS_SeaWaterVelocityY_DBS-0.5m_RLatLon0.03_PT030H.nc 2026-05-08 18:12 17M
20260508T12Z_MSC_CAPS_SeaWaterVelocityY_DBS-all_RLatLon0.03_PT030H.nc 2026-05-08 18:12 220M
20260508T12Z_MSC_CAPS_SensibleHeatNetFlux_Sfc_RLatLon0.03_PT030H.grib2 2026-05-08 18:15 2.2M
20260508T12Z_MSC_CAPS_ShowalterIndex_IsbL-0500_RLatLon0.03_PT030H.grib2 2026-05-08 18:15 4.3M
20260508T12Z_MSC_CAPS_Snow-Accum_Sfc_RLatLon0.03_PT030H.grib2 2026-05-08 18:15 3.7M
20260508T12Z_MSC_CAPS_SnowDensity_Sfc_RLatLon0.03_PT030H.grib2 2026-05-08 18:15 1.3M
20260508T12Z_MSC_CAPS_SnowDepthWaterEquivalent_Sfc_RLatLon0.03_PT030H.grib2 2026-05-08 18:15 641K
20260508T12Z_MSC_CAPS_SnowDepth_Sfc_RLatLon0.03_PT030H.grib2 2026-05-08 18:15 1.1M
20260508T12Z_MSC_CAPS_SoilTemp_DBS-0to10cm_RLatLon0.03_PT030H.grib2 2026-05-08 18:15 1.6M
20260508T12Z_MSC_CAPS_SoilTemp_Sfc_RLatLon0.03_PT030H.grib2 2026-05-08 18:15 1.8M
20260508T12Z_MSC_CAPS_SoilVolumetricIceContent_Sfc_RLatLon0.03_PT030H.grib2 2026-05-08 18:15 1.3M
20260508T12Z_MSC_CAPS_SoilVolumetricWaterContent_DBS-0to10cm_RLatLon0.03_PT030H.grib2 2026-05-08 18:15 1.4M
20260508T12Z_MSC_CAPS_SoilVolumetricWaterContent_DBS-0to1cm_RLatLon0.03_PT030H.grib2 2026-05-08 18:15 1.8M
20260508T12Z_MSC_CAPS_SpecificHumidity_AGL-120m_RLatLon0.03_PT030H.grib2 2026-05-08 18:15 1.8M
20260508T12Z_MSC_CAPS_SpecificHumidity_AGL-2m_RLatLon0.03_PT030H.grib2 2026-05-08 18:15 2.1M
20260508T12Z_MSC_CAPS_SpecificHumidity_AGL-40m_RLatLon0.03_PT030H.grib2 2026-05-08 18:15 1.9M
20260508T12Z_MSC_CAPS_SpecificHumidity_AGL-80m_RLatLon0.03_PT030H.grib2 2026-05-08 18:15 1.8M
20260508T12Z_MSC_CAPS_SpecificHumidity_IsbL-0050_RLatLon0.03_PT030H.grib2 2026-05-08 18:15 908K
20260508T12Z_MSC_CAPS_SpecificHumidity_IsbL-0100_RLatLon0.03_PT030H.grib2 2026-05-08 18:15 1.1M
20260508T12Z_MSC_CAPS_SpecificHumidity_IsbL-0150_RLatLon0.03_PT030H.grib2 2026-05-08 18:15 752K
20260508T12Z_MSC_CAPS_SpecificHumidity_IsbL-0175_RLatLon0.03_PT030H.grib2 2026-05-08 18:15 1.0M
20260508T12Z_MSC_CAPS_SpecificHumidity_IsbL-0200_RLatLon0.03_PT030H.grib2 2026-05-08 18:15 905K
20260508T12Z_MSC_CAPS_SpecificHumidity_IsbL-0225_RLatLon0.03_PT030H.grib2 2026-05-08 18:15 1.1M
20260508T12Z_MSC_CAPS_SpecificHumidity_IsbL-0250_RLatLon0.03_PT030H.grib2 2026-05-08 18:15 1.1M
20260508T12Z_MSC_CAPS_SpecificHumidity_IsbL-0275_RLatLon0.03_PT030H.grib2 2026-05-08 18:15 1.1M
20260508T12Z_MSC_CAPS_SpecificHumidity_IsbL-0300_RLatLon0.03_PT030H.grib2 2026-05-08 18:15 1.1M
20260508T12Z_MSC_CAPS_SpecificHumidity_IsbL-0350_RLatLon0.03_PT030H.grib2 2026-05-08 18:15 1.0M
20260508T12Z_MSC_CAPS_SpecificHumidity_IsbL-0400_RLatLon0.03_PT030H.grib2 2026-05-08 18:15 1.0M
20260508T12Z_MSC_CAPS_SpecificHumidity_IsbL-0450_RLatLon0.03_PT030H.grib2 2026-05-08 18:15 1.2M
20260508T12Z_MSC_CAPS_SpecificHumidity_IsbL-0500_RLatLon0.03_PT030H.grib2 2026-05-08 18:15 1.1M
20260508T12Z_MSC_CAPS_SpecificHumidity_IsbL-0550_RLatLon0.03_PT030H.grib2 2026-05-08 18:15 1.3M
20260508T12Z_MSC_CAPS_SpecificHumidity_IsbL-0600_RLatLon0.03_PT030H.grib2 2026-05-08 18:15 1.5M
20260508T12Z_MSC_CAPS_SpecificHumidity_IsbL-0650_RLatLon0.03_PT030H.grib2 2026-05-08 18:15 1.5M
20260508T12Z_MSC_CAPS_SpecificHumidity_IsbL-0700_RLatLon0.03_PT030H.grib2 2026-05-08 18:15 1.3M
20260508T12Z_MSC_CAPS_SpecificHumidity_IsbL-0750_RLatLon0.03_PT030H.grib2 2026-05-08 18:15 1.5M
20260508T12Z_MSC_CAPS_SpecificHumidity_IsbL-0800_RLatLon0.03_PT030H.grib2 2026-05-08 18:15 1.6M
20260508T12Z_MSC_CAPS_SpecificHumidity_IsbL-0850_RLatLon0.03_PT030H.grib2 2026-05-08 18:15 1.8M
20260508T12Z_MSC_CAPS_SpecificHumidity_IsbL-0875_RLatLon0.03_PT030H.grib2 2026-05-08 18:15 1.9M
20260508T12Z_MSC_CAPS_SpecificHumidity_IsbL-0900_RLatLon0.03_PT030H.grib2 2026-05-08 18:15 1.9M
20260508T12Z_MSC_CAPS_SpecificHumidity_IsbL-0925_RLatLon0.03_PT030H.grib2 2026-05-08 18:15 2.0M
20260508T12Z_MSC_CAPS_SpecificHumidity_IsbL-0950_RLatLon0.03_PT030H.grib2 2026-05-08 18:15 2.0M
20260508T12Z_MSC_CAPS_SpecificHumidity_IsbL-0970_RLatLon0.03_PT030H.grib2 2026-05-08 18:15 2.1M
20260508T12Z_MSC_CAPS_SpecificHumidity_IsbL-0985_RLatLon0.03_PT030H.grib2 2026-05-08 18:15 2.1M
20260508T12Z_MSC_CAPS_SpecificHumidity_IsbL-1000_RLatLon0.03_PT030H.grib2 2026-05-08 18:15 2.1M
20260508T12Z_MSC_CAPS_SpecificHumidity_IsbL-1015_RLatLon0.03_PT030H.grib2 2026-05-08 18:15 2.1M
20260508T12Z_MSC_CAPS_SpecificHumidity_Sfc_RLatLon0.03_PT030H.grib2 2026-05-08 18:15 2.1M
20260508T12Z_MSC_CAPS_StormRelativeHelicity_Sfc_RLatLon0.03_PT030H.grib2 2026-05-08 18:15 3.2M
20260508T12Z_MSC_CAPS_Thickness_IsbL-1000to0500_RLatLon0.03_PT030H.grib2 2026-05-08 18:15 428K
20260508T12Z_MSC_CAPS_TotalCloudCover_Sfc_RLatLon0.03_PT030H.grib2 2026-05-08 18:15 3.6M
20260508T12Z_MSC_CAPS_TurboclineDepth_Sfc_RLatLon0.03_PT030H.nc 2026-05-08 18:12 16M
20260508T12Z_MSC_CAPS_UpwardLongwaveRadiationFlux_NTAtm_RLatLon0.03_PT030H.grib2 2026-05-08 18:15 2.9M
20260508T12Z_MSC_CAPS_UpwardShortwaveRadiationFlux_NTAtm_RLatLon0.03_PT030H.grib2 2026-05-08 18:15 2.8M
20260508T12Z_MSC_CAPS_VerticalVelocity_IsbL-0250_RLatLon0.03_PT030H.grib2 2026-05-08 18:15 1.1M
20260508T12Z_MSC_CAPS_VerticalVelocity_IsbL-0500_RLatLon0.03_PT030H.grib2 2026-05-08 18:15 1.1M
20260508T12Z_MSC_CAPS_VerticalVelocity_IsbL-0700_RLatLon0.03_PT030H.grib2 2026-05-08 18:15 1.2M
20260508T12Z_MSC_CAPS_VerticalVelocity_IsbL-0850_RLatLon0.03_PT030H.grib2 2026-05-08 18:15 1.5M
20260508T12Z_MSC_CAPS_VerticalVelocity_IsbL-1000_RLatLon0.03_PT030H.grib2 2026-05-08 18:15 1.3M
20260508T12Z_MSC_CAPS_WindDir_AGL-10m_RLatLon0.03_PT030H.grib2 2026-05-08 18:15 2.3M
20260508T12Z_MSC_CAPS_WindDir_AGL-120m_RLatLon0.03_PT030H.grib2 2026-05-08 18:15 1.3M
20260508T12Z_MSC_CAPS_WindDir_AGL-40m_RLatLon0.03_PT030H.grib2 2026-05-08 18:15 1.3M
20260508T12Z_MSC_CAPS_WindDir_AGL-80m_RLatLon0.03_PT030H.grib2 2026-05-08 18:15 1.3M
20260508T12Z_MSC_CAPS_WindDir_IsbL-0050_RLatLon0.03_PT030H.grib2 2026-05-08 18:15 1.0M
20260508T12Z_MSC_CAPS_WindDir_IsbL-0100_RLatLon0.03_PT030H.grib2 2026-05-08 18:15 1.0M
20260508T12Z_MSC_CAPS_WindDir_IsbL-0150_RLatLon0.03_PT030H.grib2 2026-05-08 18:15 1.1M
20260508T12Z_MSC_CAPS_WindDir_IsbL-0175_RLatLon0.03_PT030H.grib2 2026-05-08 18:15 1.1M
20260508T12Z_MSC_CAPS_WindDir_IsbL-0200_RLatLon0.03_PT030H.grib2 2026-05-08 18:15 1.2M
20260508T12Z_MSC_CAPS_WindDir_IsbL-0225_RLatLon0.03_PT030H.grib2 2026-05-08 18:15 1.1M
20260508T12Z_MSC_CAPS_WindDir_IsbL-0250_RLatLon0.03_PT030H.grib2 2026-05-08 18:15 1.1M
20260508T12Z_MSC_CAPS_WindDir_IsbL-0275_RLatLon0.03_PT030H.grib2 2026-05-08 18:15 1.1M
20260508T12Z_MSC_CAPS_WindDir_IsbL-0300_RLatLon0.03_PT030H.grib2 2026-05-08 18:15 1.1M
20260508T12Z_MSC_CAPS_WindDir_IsbL-0350_RLatLon0.03_PT030H.grib2 2026-05-08 18:15 1.1M
20260508T12Z_MSC_CAPS_WindDir_IsbL-0400_RLatLon0.03_PT030H.grib2 2026-05-08 18:15 1.1M
20260508T12Z_MSC_CAPS_WindDir_IsbL-0450_RLatLon0.03_PT030H.grib2 2026-05-08 18:15 1.2M
20260508T12Z_MSC_CAPS_WindDir_IsbL-0500_RLatLon0.03_PT030H.grib2 2026-05-08 18:15 1.2M
20260508T12Z_MSC_CAPS_WindDir_IsbL-0550_RLatLon0.03_PT030H.grib2 2026-05-08 18:15 1.2M
20260508T12Z_MSC_CAPS_WindDir_IsbL-0600_RLatLon0.03_PT030H.grib2 2026-05-08 18:15 1.2M
20260508T12Z_MSC_CAPS_WindDir_IsbL-0650_RLatLon0.03_PT030H.grib2 2026-05-08 18:15 1.3M
20260508T12Z_MSC_CAPS_WindDir_IsbL-0700_RLatLon0.03_PT030H.grib2 2026-05-08 18:15 1.4M
20260508T12Z_MSC_CAPS_WindDir_IsbL-0750_RLatLon0.03_PT030H.grib2 2026-05-08 18:15 1.5M
20260508T12Z_MSC_CAPS_WindDir_IsbL-0800_RLatLon0.03_PT030H.grib2 2026-05-08 18:15 1.6M
20260508T12Z_MSC_CAPS_WindDir_IsbL-0850_RLatLon0.03_PT030H.grib2 2026-05-08 18:15 1.7M
20260508T12Z_MSC_CAPS_WindDir_IsbL-0875_RLatLon0.03_PT030H.grib2 2026-05-08 18:15 1.8M
20260508T12Z_MSC_CAPS_WindDir_IsbL-0900_RLatLon0.03_PT030H.grib2 2026-05-08 18:15 1.9M
20260508T12Z_MSC_CAPS_WindDir_IsbL-0925_RLatLon0.03_PT030H.grib2 2026-05-08 18:15 2.0M
20260508T12Z_MSC_CAPS_WindDir_IsbL-0950_RLatLon0.03_PT030H.grib2 2026-05-08 18:15 2.0M
20260508T12Z_MSC_CAPS_WindDir_IsbL-0970_RLatLon0.03_PT030H.grib2 2026-05-08 18:15 2.1M
20260508T12Z_MSC_CAPS_WindDir_IsbL-0985_RLatLon0.03_PT030H.grib2 2026-05-08 18:15 2.2M
20260508T12Z_MSC_CAPS_WindDir_IsbL-1000_RLatLon0.03_PT030H.grib2 2026-05-08 18:15 2.2M
20260508T12Z_MSC_CAPS_WindDir_IsbL-1015_RLatLon0.03_PT030H.grib2 2026-05-08 18:15 2.3M
20260508T12Z_MSC_CAPS_WindGust-Max_AGL-10m_RLatLon0.03_PT030H.grib2 2026-05-08 18:15 2.5M
20260508T12Z_MSC_CAPS_WindGust-Min_AGL-10m_RLatLon0.03_PT030H.grib2 2026-05-08 18:15 2.5M
20260508T12Z_MSC_CAPS_WindGust_AGL-10m_RLatLon0.03_PT030H.grib2 2026-05-08 18:15 2.6M
20260508T12Z_MSC_CAPS_WindSpeed_AGL-10m_RLatLon0.03_PT030H.grib2 2026-05-08 18:15 2.1M
20260508T12Z_MSC_CAPS_WindSpeed_AGL-120m_RLatLon0.03_PT030H.grib2 2026-05-08 18:15 1.1M
20260508T12Z_MSC_CAPS_WindSpeed_AGL-40m_RLatLon0.03_PT030H.grib2 2026-05-08 18:15 1.6M
20260508T12Z_MSC_CAPS_WindSpeed_AGL-80m_RLatLon0.03_PT030H.grib2 2026-05-08 18:15 1.5M
20260508T12Z_MSC_CAPS_WindSpeed_IsbL-0050_RLatLon0.03_PT030H.grib2 2026-05-08 18:15 1.1M
20260508T12Z_MSC_CAPS_WindSpeed_IsbL-0100_RLatLon0.03_PT030H.grib2 2026-05-08 18:15 1.1M
20260508T12Z_MSC_CAPS_WindSpeed_IsbL-0150_RLatLon0.03_PT030H.grib2 2026-05-08 18:15 1.1M
20260508T12Z_MSC_CAPS_WindSpeed_IsbL-0175_RLatLon0.03_PT030H.grib2 2026-05-08 18:15 1.1M
20260508T12Z_MSC_CAPS_WindSpeed_IsbL-0200_RLatLon0.03_PT030H.grib2 2026-05-08 18:15 942K
20260508T12Z_MSC_CAPS_WindSpeed_IsbL-0225_RLatLon0.03_PT030H.grib2 2026-05-08 18:15 1.0M
20260508T12Z_MSC_CAPS_WindSpeed_IsbL-0250_RLatLon0.03_PT030H.grib2 2026-05-08 18:15 1.0M
20260508T12Z_MSC_CAPS_WindSpeed_IsbL-0275_RLatLon0.03_PT030H.grib2 2026-05-08 18:15 1.0M
20260508T12Z_MSC_CAPS_WindSpeed_IsbL-0300_RLatLon0.03_PT030H.grib2 2026-05-08 18:15 1.0M
20260508T12Z_MSC_CAPS_WindSpeed_IsbL-0350_RLatLon0.03_PT030H.grib2 2026-05-08 18:15 1.0M
20260508T12Z_MSC_CAPS_WindSpeed_IsbL-0400_RLatLon0.03_PT030H.grib2 2026-05-08 18:15 1.0M
20260508T12Z_MSC_CAPS_WindSpeed_IsbL-0450_RLatLon0.03_PT030H.grib2 2026-05-08 18:15 1.0M
20260508T12Z_MSC_CAPS_WindSpeed_IsbL-0500_RLatLon0.03_PT030H.grib2 2026-05-08 18:15 1.4M
20260508T12Z_MSC_CAPS_WindSpeed_IsbL-0550_RLatLon0.03_PT030H.grib2 2026-05-08 18:15 1.3M
20260508T12Z_MSC_CAPS_WindSpeed_IsbL-0600_RLatLon0.03_PT030H.grib2 2026-05-08 18:15 1.4M
20260508T12Z_MSC_CAPS_WindSpeed_IsbL-0650_RLatLon0.03_PT030H.grib2 2026-05-08 18:15 1.5M
20260508T12Z_MSC_CAPS_WindSpeed_IsbL-0700_RLatLon0.03_PT030H.grib2 2026-05-08 18:15 1.5M
20260508T12Z_MSC_CAPS_WindSpeed_IsbL-0750_RLatLon0.03_PT030H.grib2 2026-05-08 18:15 1.6M
20260508T12Z_MSC_CAPS_WindSpeed_IsbL-0800_RLatLon0.03_PT030H.grib2 2026-05-08 18:15 1.7M
20260508T12Z_MSC_CAPS_WindSpeed_IsbL-0850_RLatLon0.03_PT030H.grib2 2026-05-08 18:15 1.8M
20260508T12Z_MSC_CAPS_WindSpeed_IsbL-0875_RLatLon0.03_PT030H.grib2 2026-05-08 18:15 1.8M
20260508T12Z_MSC_CAPS_WindSpeed_IsbL-0900_RLatLon0.03_PT030H.grib2 2026-05-08 18:15 1.9M
20260508T12Z_MSC_CAPS_WindSpeed_IsbL-0925_RLatLon0.03_PT030H.grib2 2026-05-08 18:15 1.9M
20260508T12Z_MSC_CAPS_WindSpeed_IsbL-0950_RLatLon0.03_PT030H.grib2 2026-05-08 18:15 1.9M
20260508T12Z_MSC_CAPS_WindSpeed_IsbL-0970_RLatLon0.03_PT030H.grib2 2026-05-08 18:15 2.0M
20260508T12Z_MSC_CAPS_WindSpeed_IsbL-0985_RLatLon0.03_PT030H.grib2 2026-05-08 18:15 2.0M
20260508T12Z_MSC_CAPS_WindSpeed_IsbL-1000_RLatLon0.03_PT030H.grib2 2026-05-08 18:15 2.1M
20260508T12Z_MSC_CAPS_WindSpeed_IsbL-1015_RLatLon0.03_PT030H.grib2 2026-05-08 18:15 2.1M
20260508T12Z_MSC_CAPS_WindU_AGL-10m_RLatLon0.03_PT030H.grib2 2026-05-08 18:15 2.0M
20260508T12Z_MSC_CAPS_WindU_AGL-120m_RLatLon0.03_PT030H.grib2 2026-05-08 18:15 1.2M
20260508T12Z_MSC_CAPS_WindU_AGL-40m_RLatLon0.03_PT030H.grib2 2026-05-08 18:15 1.2M
20260508T12Z_MSC_CAPS_WindU_AGL-80m_RLatLon0.03_PT030H.grib2 2026-05-08 18:15 1.2M
20260508T12Z_MSC_CAPS_WindU_IsbL-0050_RLatLon0.03_PT030H.grib2 2026-05-08 18:15 757K
20260508T12Z_MSC_CAPS_WindU_IsbL-0100_RLatLon0.03_PT030H.grib2 2026-05-08 18:15 787K
20260508T12Z_MSC_CAPS_WindU_IsbL-0150_RLatLon0.03_PT030H.grib2 2026-05-08 18:15 704K
20260508T12Z_MSC_CAPS_WindU_IsbL-0175_RLatLon0.03_PT030H.grib2 2026-05-08 18:15 852K
20260508T12Z_MSC_CAPS_WindU_IsbL-0200_RLatLon0.03_PT030H.grib2 2026-05-08 18:15 876K
20260508T12Z_MSC_CAPS_WindU_IsbL-0225_RLatLon0.03_PT030H.grib2 2026-05-08 18:15 691K
20260508T12Z_MSC_CAPS_WindU_IsbL-0250_RLatLon0.03_PT030H.grib2 2026-05-08 18:15 713K
20260508T12Z_MSC_CAPS_WindU_IsbL-0275_RLatLon0.03_PT030H.grib2 2026-05-08 18:15 721K
20260508T12Z_MSC_CAPS_WindU_IsbL-0300_RLatLon0.03_PT030H.grib2 2026-05-08 18:15 726K
20260508T12Z_MSC_CAPS_WindU_IsbL-0350_RLatLon0.03_PT030H.grib2 2026-05-08 18:15 731K
20260508T12Z_MSC_CAPS_WindU_IsbL-0400_RLatLon0.03_PT030H.grib2 2026-05-08 18:15 952K
20260508T12Z_MSC_CAPS_WindU_IsbL-0450_RLatLon0.03_PT030H.grib2 2026-05-08 18:15 972K
20260508T12Z_MSC_CAPS_WindU_IsbL-0500_RLatLon0.03_PT030H.grib2 2026-05-08 18:15 1.0M
20260508T12Z_MSC_CAPS_WindU_IsbL-0550_RLatLon0.03_PT030H.grib2 2026-05-08 18:15 921K
20260508T12Z_MSC_CAPS_WindU_IsbL-0600_RLatLon0.03_PT030H.grib2 2026-05-08 18:15 951K
20260508T12Z_MSC_CAPS_WindU_IsbL-0650_RLatLon0.03_PT030H.grib2 2026-05-08 18:15 1.0M
20260508T12Z_MSC_CAPS_WindU_IsbL-0700_RLatLon0.03_PT030H.grib2 2026-05-08 18:15 1.0M
20260508T12Z_MSC_CAPS_WindU_IsbL-0750_RLatLon0.03_PT030H.grib2 2026-05-08 18:15 1.1M
20260508T12Z_MSC_CAPS_WindU_IsbL-0800_RLatLon0.03_PT030H.grib2 2026-05-08 18:15 1.2M
20260508T12Z_MSC_CAPS_WindU_IsbL-0850_RLatLon0.03_PT030H.grib2 2026-05-08 18:15 1.2M
20260508T12Z_MSC_CAPS_WindU_IsbL-0875_RLatLon0.03_PT030H.grib2 2026-05-08 18:15 1.3M
20260508T12Z_MSC_CAPS_WindU_IsbL-0900_RLatLon0.03_PT030H.grib2 2026-05-08 18:15 1.3M
20260508T12Z_MSC_CAPS_WindU_IsbL-0925_RLatLon0.03_PT030H.grib2 2026-05-08 18:15 1.3M
20260508T12Z_MSC_CAPS_WindU_IsbL-0950_RLatLon0.03_PT030H.grib2 2026-05-08 18:15 1.4M
20260508T12Z_MSC_CAPS_WindU_IsbL-0970_RLatLon0.03_PT030H.grib2 2026-05-08 18:15 1.8M
20260508T12Z_MSC_CAPS_WindU_IsbL-0985_RLatLon0.03_PT030H.grib2 2026-05-08 18:15 1.8M
20260508T12Z_MSC_CAPS_WindU_IsbL-1000_RLatLon0.03_PT030H.grib2 2026-05-08 18:15 2.0M
20260508T12Z_MSC_CAPS_WindU_IsbL-1015_RLatLon0.03_PT030H.grib2 2026-05-08 18:15 2.0M
20260508T12Z_MSC_CAPS_WindV_AGL-10m_RLatLon0.03_PT030H.grib2 2026-05-08 18:15 2.0M
20260508T12Z_MSC_CAPS_WindV_AGL-120m_RLatLon0.03_PT030H.grib2 2026-05-08 18:15 1.2M
20260508T12Z_MSC_CAPS_WindV_AGL-40m_RLatLon0.03_PT030H.grib2 2026-05-08 18:15 1.2M
20260508T12Z_MSC_CAPS_WindV_AGL-80m_RLatLon0.03_PT030H.grib2 2026-05-08 18:15 1.2M
20260508T12Z_MSC_CAPS_WindV_IsbL-0050_RLatLon0.03_PT030H.grib2 2026-05-08 18:15 763K
20260508T12Z_MSC_CAPS_WindV_IsbL-0100_RLatLon0.03_PT030H.grib2 2026-05-08 18:15 789K
20260508T12Z_MSC_CAPS_WindV_IsbL-0150_RLatLon0.03_PT030H.grib2 2026-05-08 18:15 916K
20260508T12Z_MSC_CAPS_WindV_IsbL-0175_RLatLon0.03_PT030H.grib2 2026-05-08 18:15 727K
20260508T12Z_MSC_CAPS_WindV_IsbL-0200_RLatLon0.03_PT030H.grib2 2026-05-08 18:15 876K
20260508T12Z_MSC_CAPS_WindV_IsbL-0225_RLatLon0.03_PT030H.grib2 2026-05-08 18:15 900K
20260508T12Z_MSC_CAPS_WindV_IsbL-0250_RLatLon0.03_PT030H.grib2 2026-05-08 18:15 921K
20260508T12Z_MSC_CAPS_WindV_IsbL-0275_RLatLon0.03_PT030H.grib2 2026-05-08 18:15 928K
20260508T12Z_MSC_CAPS_WindV_IsbL-0300_RLatLon0.03_PT030H.grib2 2026-05-08 18:15 935K
20260508T12Z_MSC_CAPS_WindV_IsbL-0350_RLatLon0.03_PT030H.grib2 2026-05-08 18:15 942K
20260508T12Z_MSC_CAPS_WindV_IsbL-0400_RLatLon0.03_PT030H.grib2 2026-05-08 18:15 949K
20260508T12Z_MSC_CAPS_WindV_IsbL-0450_RLatLon0.03_PT030H.grib2 2026-05-08 18:15 967K
20260508T12Z_MSC_CAPS_WindV_IsbL-0500_RLatLon0.03_PT030H.grib2 2026-05-08 18:15 1.0M
20260508T12Z_MSC_CAPS_WindV_IsbL-0550_RLatLon0.03_PT030H.grib2 2026-05-08 18:15 913K
20260508T12Z_MSC_CAPS_WindV_IsbL-0600_RLatLon0.03_PT030H.grib2 2026-05-08 18:15 944K
20260508T12Z_MSC_CAPS_WindV_IsbL-0650_RLatLon0.03_PT030H.grib2 2026-05-08 18:15 1.0M
20260508T12Z_MSC_CAPS_WindV_IsbL-0700_RLatLon0.03_PT030H.grib2 2026-05-08 18:15 1.0M
20260508T12Z_MSC_CAPS_WindV_IsbL-0750_RLatLon0.03_PT030H.grib2 2026-05-08 18:15 1.1M
20260508T12Z_MSC_CAPS_WindV_IsbL-0800_RLatLon0.03_PT030H.grib2 2026-05-08 18:15 1.1M
20260508T12Z_MSC_CAPS_WindV_IsbL-0850_RLatLon0.03_PT030H.grib2 2026-05-08 18:15 1.5M
20260508T12Z_MSC_CAPS_WindV_IsbL-0875_RLatLon0.03_PT030H.grib2 2026-05-08 18:15 1.6M
20260508T12Z_MSC_CAPS_WindV_IsbL-0900_RLatLon0.03_PT030H.grib2 2026-05-08 18:15 1.6M
20260508T12Z_MSC_CAPS_WindV_IsbL-0925_RLatLon0.03_PT030H.grib2 2026-05-08 18:15 1.7M
20260508T12Z_MSC_CAPS_WindV_IsbL-0950_RLatLon0.03_PT030H.grib2 2026-05-08 18:15 1.7M
20260508T12Z_MSC_CAPS_WindV_IsbL-0970_RLatLon0.03_PT030H.grib2 2026-05-08 18:15 1.8M
20260508T12Z_MSC_CAPS_WindV_IsbL-0985_RLatLon0.03_PT030H.grib2 2026-05-08 18:15 1.9M
20260508T12Z_MSC_CAPS_WindV_IsbL-1000_RLatLon0.03_PT030H.grib2 2026-05-08 18:15 2.0M
20260508T12Z_MSC_CAPS_WindV_IsbL-1015_RLatLon0.03_PT030H.grib2 2026-05-08 18:15 2.0M